{"data":{"norad_id":38332,"epoch":"2026-09-19T07:18:38.717856Z","epoch_age_seconds":121573,"freshness":"FRESH","line1":"1 38332U 12023B   26262.30461479 -.00000333  00000+0  00000+0 0  9997","line2":"2 38332   0.0374 318.6364 0002087 211.2343  69.8490  1.00270064 47602","mean_motion":1.00270064,"eccentricity":0.0002087,"inclination_deg":0.0374,"raan_deg":318.6364,"arg_perigee_deg":211.2343,"mean_anomaly_deg":69.849,"bstar":0,"rev_number":4760,"period_min":1436.1215526899,"perigee_km":35778.277546615,"apogee_km":35795.877307116,"semimajor_km":42165.214426865,"source":"CELESTRAK","updated_at":"2026-09-20T09:00:35.174646Z"}}